When you browse on this site, cookies collect data to enhance your experience and personalize the content and advertising you see.
Visit our Privacy Policy to learn more. By continuing to use the site, you agree to this use of cookies and data.
  • In Belgium
  • List of Countries
  • For 7 days
  • Water Temperature
  • Satellite Maps
  • Weather Map
  • Weather Widgets
  • user-avatar
    Login

    Hourly Weather Mostar

    Today, 25 April, Thursday

    Time Temperature Precipitation Wind Pressure Humidity
    00:00 +16°C° 0 mm 3 mps 757 mmHg 65%
    01:00 +16°C° 0 mm 3 mps 757 mmHg 66%
    02:00 +14°C° 0 mm 3 mps 757 mmHg 67%
    03:00 +14°C° 0 mm 3 mps 757 mmHg 69%
    04:00 +14°C° 0 mm 3 mps 757 mmHg 70%
    05:00 +16°C° 0 mm 2 mps 757 mmHg 69%
    06:00 +17°C° 0 mm 2 mps 758 mmHg 67%
    07:00 +18°C° 0 mm 2 mps 758 mmHg 66%
    08:00 +20°C° 0 mm 3 mps 758 mmHg 61%
    09:00 +21°C° 0 mm 3 mps 758 mmHg 57%
    10:00 +22°C° 0 mm 3 mps 758 mmHg 53%
    11:00 +24°C° 0 mm 3 mps 758 mmHg 52%
    12:00 +24°C° 0 mm 3 mps 758 mmHg 51%
    13:00 +25°C° 0 mm 3 mps 758 mmHg 50%
    14:00 +25°C° 0 mm 2 mps 757 mmHg 51%
    15:00 +24°C° 0 mm 2 mps 757 mmHg 52%
    16:00 +24°C° 0 mm 2 mps 757 mmHg 53%
    17:00 +22°C° 0 mm 1 mps 757 mmHg 59%
    18:00 +21°C° 0 mm 1 mps 757 mmHg 65%
    19:00 +19°C° 0 mm 1 mps 757 mmHg 71%
    20:00 +18°C° 0 mm 1 mps 757 mmHg 72%
    21:00 +18°C° 0 mm 1 mps 757 mmHg 73%
    22:00 +17°C° 0 mm 2 mps 758 mmHg 73%
    23:00 +16°C° 0 mm 2 mps 757 mmHg 73%

    Tomorrow, 26 April, Friday

    Time Temperature Precipitation Wind Pressure Humidity
    00:00 +16°C° 0 mm 2 mps 757 mmHg 73%
    01:00 +16°C° 0 mm 2 mps 757 mmHg 73%
    02:00 +16°C° 0 mm 2 mps 757 mmHg 71%
    03:00 +16°C° 0 mm 2 mps 757 mmHg 69%
    04:00 +16°C° 0 mm 2 mps 756 mmHg 67%
    05:00 +17°C° 0 mm 2 mps 756 mmHg 65%
    06:00 +18°C° 0 mm 2 mps 756 mmHg 64%
    07:00 +19°C° 0 mm 2 mps 756 mmHg 62%
    08:00 +20°C° 0 mm 2 mps 756 mmHg 57%
    09:00 +22°C° 0 mm 3 mps 756 mmHg 52%
    10:00 +25°C° 0 mm 3 mps 755 mmHg 47%
    11:00 +25°C° 0 mm 3 mps 755 mmHg 46%
    12:00 +26°C° 0 mm 3 mps 754 mmHg 45%
    13:00 +26°C° 0 mm 3 mps 754 mmHg 44%
    14:00 +26°C° 0 mm 3 mps 754 mmHg 46%
    15:00 +25°C° 0 mm 3 mps 753 mmHg 47%
    16:00 +25°C° 0 mm 3 mps 753 mmHg 49%
    17:00 +22°C° 0 mm 3 mps 753 mmHg 54%
    18:00 +20°C° 0 mm 2 mps 753 mmHg 60%
    19:00 +19°C° 0 mm 2 mps 753 mmHg 65%
    20:00 +18°C° 0.1 mm 2 mps 753 mmHg 65%
    21:00 +18°C° 0.1 mm 2 mps 753 mmHg 66%
    22:00 +18°C° 0.1 mm 2 mps 753 mmHg 66%
    23:00 +17°C° 0.4 mm 3 mps 753 mmHg 69%

    Day after tomorrow, 27 April, Saturday

    Time Temperature Precipitation Wind Pressure Humidity
    00:00 +17°C° 0.4 mm 3 mps 753 mmHg 72%
    01:00 +17°C° 0.4 mm 4 mps 753 mmHg 75%
    02:00 +16°C° 0.7 mm 3 mps 753 mmHg 78%
    03:00 +16°C° 0.7 mm 3 mps 753 mmHg 82%
    04:00 +16°C° 0.7 mm 3 mps 753 mmHg 85%
    05:00 +16°C° 1 mm 2 mps 753 mmHg 86%
    06:00 +17°C° 1 mm 2 mps 753 mmHg 86%
    07:00 +17°C° 1 mm 2 mps 753 mmHg 87%
    08:00 +18°C° 0.2 mm 2 mps 753 mmHg 81%
    09:00 +19°C° 0.2 mm 2 mps 753 mmHg 74%
    10:00 +20°C° 0.2 mm 3 mps 754 mmHg 68%
    11:00 +20°C° 0.1 mm 3 mps 754 mmHg 61%
    12:00 +20°C° 0.1 mm 4 mps 753 mmHg 54%
    13:00 +21°C° 0.1 mm 4 mps 753 mmHg 46%
    14:00 +20°C° 0 mm 4 mps 753 mmHg 48%
    15:00 +20°C° 0 mm 5 mps 753 mmHg 49%
    16:00 +19°C° 0 mm 5 mps 753 mmHg 51%
    17:00 +18°C° 0.1 mm 4 mps 753 mmHg 58%
    18:00 +16°C° 0.1 mm 3 mps 753 mmHg 64%
    19:00 +15°C° 0.1 mm 2 mps 753 mmHg 71%
    20:00 +14°C° 0 mm 2 mps 754 mmHg 72%
    21:00 +13°C° 0 mm 1 mps 754 mmHg 74%
    22:00 +13°C° 0 mm 1 mps 754 mmHg 75%
    23:00 +12°C° 0 mm 1 mps 754 mmHg 76%

    28 April, Sunday

    Time Temperature Precipitation Wind Pressure Humidity
    00:00 +12°C° 0 mm 1 mps 754 mmHg 78%
    01:00 +12°C° 0 mm 1 mps 754 mmHg 79%
    02:00 +11°C° 0 mm 1 mps 754 mmHg 79%
    03:00 +11°C° 0 mm 1 mps 754 mmHg 78%
    04:00 +11°C° 0 mm 1 mps 754 mmHg 78%
    05:00 +12°C° 0 mm 1 mps 754 mmHg 74%
    06:00 +13°C° 0 mm 1 mps 754 mmHg 70%
    07:00 +14°C° 0 mm 1 mps 754 mmHg 66%
    08:00 +16°C° 0 mm 2 mps 753 mmHg 60%
    09:00 +17°C° 0 mm 2 mps 753 mmHg 54%
    10:00 +18°C° 0 mm 2 mps 753 mmHg 48%
    11:00 +19°C° 0 mm 3 mps 753 mmHg 50%
    12:00 +19°C° 0 mm 3 mps 752 mmHg 51%
    13:00 +19°C° 0 mm 3 mps 752 mmHg 53%
    14:00 +19°C° 0 mm 3 mps 751 mmHg 55%
    15:00 +18°C° 0 mm 3 mps 751 mmHg 58%
    16:00 +18°C° 0 mm 3 mps 751 mmHg 61%
    17:00 +17°C° 0 mm 3 mps 751 mmHg 65%
    18:00 +16°C° 0 mm 2 mps 751 mmHg 70%
    19:00 +14°C° 0 mm 2 mps 751 mmHg 75%
    20:00 +14°C° 0.5 mm 2 mps 751 mmHg 77%
    21:00 +13°C° 0.5 mm 3 mps 752 mmHg 78%
    22:00 +13°C° 0.5 mm 3 mps 752 mmHg 80%
    23:00 +14°C° 0.7 mm 2 mps 752 mmHg 81%

    29 April, Monday

    Time Temperature Precipitation Wind Pressure Humidity
    00:00 +14°C° 0.7 mm 2 mps 751 mmHg 82%
    01:00 +13°C° 0.7 mm 2 mps 751 mmHg 83%
    02:00 +13°C° 0.2 mm 2 mps 751 mmHg 84%
    03:00 +12°C° 0.2 mm 2 mps 751 mmHg 85%
    04:00 +12°C° 0.2 mm 2 mps 751 mmHg 86%
    05:00 +13°C° 0.3 mm 2 mps 751 mmHg 81%
    06:00 +12°C° 0.3 mm 3 mps 751 mmHg 76%
    07:00 +13°C° 0.3 mm 3 mps 751 mmHg 72%
    08:00 +14°C° 0.4 mm 3 mps 751 mmHg 69%
    09:00 +14°C° 0.4 mm 4 mps 751 mmHg 67%
    10:00 +15°C° 0.4 mm 4 mps 751 mmHg 64%
    11:00 +15°C° 0.3 mm 4 mps 751 mmHg 64%
    12:00 +17°C° 0.3 mm 4 mps 751 mmHg 63%
    13:00 +16°C° 0.3 mm 5 mps 750 mmHg 62%
    14:00 +17°C° 0.3 mm 4 mps 750 mmHg 62%
    15:00 +17°C° 0.3 mm 4 mps 750 mmHg 62%
    16:00 +17°C° 0.3 mm 3 mps 750 mmHg 61%
    17:00 +14°C° 0.3 mm 3 mps 750 mmHg 67%
    18:00 +14°C° 0.3 mm 2 mps 751 mmHg 73%
    19:00 +13°C° 0.3 mm 1 mps 751 mmHg 79%
    20:00 +12°C° 0 mm 1 mps 751 mmHg 79%
    21:00 +12°C° 0 mm 1 mps 752 mmHg 80%
    22:00 +12°C° 0 mm 1 mps 752 mmHg 81%
    23:00 +11°C° 0 mm 1 mps 752 mmHg 82%

    30 April, Tuesday

    Time Temperature Precipitation Wind Pressure Humidity
    00:00 +11°C° 0 mm 1 mps 752 mmHg 82%
    01:00 +11°C° 0 mm 1 mps 752 mmHg 83%
    02:00 +11°C° 0 mm 1 mps 752 mmHg 84%
    03:00 +10°C° 0 mm 1 mps 752 mmHg 84%
    04:00 +10°C° 0 mm 1 mps 752 mmHg 84%
    05:00 +11°C° 0 mm 1 mps 752 mmHg 81%
    06:00 +12°C° 0 mm 1 mps 752 mmHg 78%
    07:00 +12°C° 0 mm 0 mps 752 mmHg 74%
    08:00 +15°C° 0 mm 1 mps 752 mmHg 71%
    09:00 +16°C° 0 mm 1 mps 752 mmHg 67%
    10:00 +18°C° 0 mm 1 mps 752 mmHg 63%
    11:00 +17°C° 0.1 mm 2 mps 752 mmHg 64%
    12:00 +18°C° 0.1 mm 2 mps 752 mmHg 64%
    13:00 +18°C° 0.1 mm 3 mps 752 mmHg 65%
    14:00 +18°C° 0.2 mm 3 mps 751 mmHg 68%
    15:00 +18°C° 0.2 mm 2 mps 751 mmHg 70%
    16:00 +17°C° 0.2 mm 2 mps 751 mmHg 73%
    17:00 +16°C° 0.1 mm 2 mps 751 mmHg 78%
    18:00 +15°C° 0.1 mm 1 mps 751 mmHg 82%
    19:00 +14°C° 0.1 mm 1 mps 751 mmHg 87%
    20:00 +14°C° 0.2 mm 1 mps 752 mmHg 88%
    21:00 +12°C° 0.2 mm 0 mps 752 mmHg 90%
    22:00 +12°C° 0.2 mm 0 mps 753 mmHg 92%
    23:00 +13°C° 0.1 mm 1 mps 752 mmHg 91%
    Show more